Location: Newark
(40.3500°N, 15.2333°E)
Time: 14:40:35
(UTC+00:00)

Vanguard 2 - Pass Details

Date: 30 January 2020
Orbit: 552 x 2939 km, 32.9° (Epoch: 28 February)

Event Time Altitude Azimuth Distance (km) Brightness Sun altitude
Rises 04:24:23 0° 182° (S) 6,689 12.4 -20.4°
Reaches altitude 10° 04:33:11 10° 159° (SSE) 5,757 12.3 -18.7°
Maximum altitude 04:39:20 13° 138° (SE) 5,432 12.5 -17.6°
Drops below altitude 10° 04:45:11 10° 117° (ESE) 5,472 13.0 -16.5°
Sets 04:52:47 0° 93° (E) 6,066 13.9 -15.0°
